Location: *
(58.4167°N, 22.5000°E)
Time: 19:04:41
(UTC+00:00)

Cosmos 1864 Rocket - Pass Details

Date: 22 September 2019
Orbit: 950 x 998 km, 82.9° (Epoch: 19 October)

Event Time Altitude Azimuth Distance (km) Brightness Sun altitude
Rises 21:02:39 0° 347° (NNW) 3,669 8.7 -29.3°
Reaches altitude 10° 21:05:11 10° 348° (NNW) 2,713 7.7 -29.4°
Enters shadow 21:11:15 79° 54° (NE) 980 4.4 -29.7°
